| time (UTC) | temp F | wind direction | speed MPH | gust MPH | rain 1hr in | rain 24hr in | rain mn in | humidity % | barometer mb |
| 20260831134548 | 72 | 11 | 2.0 | 10.0 | 0.00 | 0.00 | 0.00 | 86 | 1010.3 |
| 20260831134025 | 72 | 81 | 4.0 | 12.0 | 0.00 | 0.00 | 0.00 | 87 | 1010.1 |
| 20260831133525 | 72 | 14 | 4.0 | 12.0 | 0.00 | 0.00 | 0.00 | 88 | 1010.0 |
| 20260831133042 | 72 | 342 | 4.0 | 12.0 | 0.00 | 0.00 | 0.00 | 89 | 1009.9 |
| 20260831132524 | 71 | 327 | 6.0 | 10.0 | 0.00 | 0.00 | 0.00 | 90 | 1010.0 |
| 20260831132025 | 71 | 320 | 4.0 | 11.0 | 0.00 | 0.00 | 0.00 | 91 | 1009.7 |
| 20260831131551 | 71 | 283 | 4.0 | 11.0 | 0.00 | 0.00 | 0.00 | 91 | 1009.7 |
| 20260831131027 | 71 | 342 | 3.0 | 9.0 | 0.00 | 0.00 | 0.00 | 92 | 1009.7 |
| 20260831130527 | 71 | 321 | 3.0 | 9.0 | 0.00 | 0.00 | 0.00 | 92 | 1009.8 |
| 20260831130051 | 71 | 302 | 3.0 | 9.0 | 0.00 | 0.00 | 0.00 | 92 | 1009.7 |
| 20260831125526 | 71 | 283 | 3.0 | 9.0 | 0.00 | 0.00 | 0.00 | 92 | 1009.7 |
| 20260831125029 | 71 | 238 | 3.0 | 8.0 | 0.00 | 0.00 | 0.00 | 92 | 1009.7 |
| 20260831124543 | 71 | 251 | 3.0 | 8.0 | 0.00 | 0.00 | 0.00 | 92 | 1009.6 |
| 20260831124027 | 71 | 304 | 3.0 | 6.0 | 0.00 | 0.00 | 0.00 | 92 | 1009.4 |
| 20260831123525 | 71 | 292 | 2.0 | 6.0 | 0.00 | 0.00 | 0.00 | 92 | 1009.4 |
| 20260831123045 | 71 | 269 | 3.0 | 6.0 | 0.00 | 0.00 | 0.00 | 92 | 1009.2 |
| 20260831122527 | 71 | 0 | 1.0 | 3.0 | 0.00 | 0.00 | 0.00 | 92 | 1009.0 |
| 20260831122025 | 71 | 0 | 0.0 | 3.0 | 0.00 | 0.00 | 0.00 | 92 | 1008.8 |
| 20260831121541 | 71 | 227 | 1.0 | 3.0 | 0.00 | 0.00 | 0.00 | 92 | 1008.6 |
| 20260831121029 | 71 | 0 | 0.0 | 3.0 | 0.00 | 0.00 | 0.00 | 92 | 1008.5 |
| 20260831120529 | 71 | 290 | 0.0 | 3.0 | 0.00 | 0.00 | 0.00 | 92 | 1008.4 |
| 20260831120049 | 71 | 284 | 0.0 | 2.0 | 0.00 | 0.00 | 0.00 | 92 | 1008.3 |
| 20260831115528 | 71 | 281 | 1.0 | 3.0 | 0.00 | 0.00 | 0.00 | 92 | 1008.2 |
| 20260831115029 | 71 | 271 | 1.0 | 3.0 | 0.00 | 0.00 | 0.00 | 92 | 1008.2 |
| 20260831114546 | 71 | 258 | 1.0 | 3.0 | 0.00 | 0.00 | 0.00 | 92 | 1008.2 |
| 20260831114031 | 71 | 291 | 1.0 | 4.0 | 0.00 | 0.00 | 0.00 | 92 | 1008.1 |
| 20260831113529 | 71 | 275 | 0.0 | 4.0 | 0.00 | 0.00 | 0.00 | 92 | 1008.1 |
| 20260831113102 | 71 | 287 | 1.0 | 4.0 | 0.00 | 0.00 | 0.00 | 92 | 1008.1 |
| 20260831112529 | 71 | 0 | 1.0 | 7.0 | 0.00 | 0.00 | 0.00 | 92 | 1008.1 |
| 20260831112029 | 71 | 299 | 2.0 | 7.0 | 0.00 | 0.00 | 0.00 | 92 | 1008.2 |
| 20260831111541 | 71 | 278 | 1.0 | 4.0 | 0.00 | 0.00 | 0.00 | 92 | 1008.1 |
| 20260831111028 | 71 | 275 | 0.0 | 2.0 | 0.00 | 0.00 | 0.00 | 91 | 1008.2 |
| 20260831110530 | 71 | 203 | 0.0 | 2.0 | 0.00 | 0.00 | 0.00 | 92 | 1008.1 |
| 20260831110048 | 71 | 228 | 0.0 | 2.0 | 0.00 | 0.00 | 0.00 | 91 | 1007.9 |
| 20260831105526 | 71 | 214 | 0.0 | 3.0 | 0.00 | 0.00 | 0.00 | 91 | 1007.7 |
| 20260831105026 | 71 | 147 | 0.0 | 4.0 | 0.00 | 0.00 | 0.00 | 91 | 1007.6 |
| 20260831104546 | 71 | 165 | 1.0 | 4.0 | 0.00 | 0.00 | 0.00 | 92 | 1007.6 |
| 20260831104025 | 71 | 164 | 1.0 | 4.0 | 0.00 | 0.00 | 0.00 | 92 | 1007.7 |
| 20260831103528 | 71 | 0 | 0.0 | 4.0 | 0.00 | 0.00 | 0.00 | 92 | 1007.7 |
| 20260831103100 | 71 | 254 | 1.0 | 4.0 | 0.00 | 0.00 | 0.00 | 92 | 1007.8 |
| 20260831102528 | 71 | 176 | 0.0 | 3.0 | 0.00 | 0.00 | 0.00 | 92 | 1007.6 |
| 20260831102029 | 71 | 221 | 0.0 | 3.0 | 0.00 | 0.00 | 0.00 | 91 | 1007.5 |
| 20260831101550 | 71 | 0 | 0.0 | 4.0 | 0.00 | 0.00 | 0.00 | 91 | 1007.5 |
| 20260831101030 | 70 | 0 | 0.0 | 6.0 | 0.00 | 0.00 | 0.00 | 91 | 1007.6 |
| 20260831100530 | 71 | 0 | 1.0 | 6.0 | 0.00 | 0.00 | 0.00 | 91 | 1007.5 |
| 20260831100048 | 71 | 240 | 1.0 | 6.0 | 0.00 | 0.00 | 0.00 | 91 | 1007.5 |
| 20260831095528 | 71 | 230 | 1.0 | 5.0 | 0.00 | 0.00 | 0.00 | 91 | 1007.4 |
| 20260831095028 | 71 | 197 | 2.0 | 5.0 | 0.00 | 0.00 | 0.00 | 91 | 1007.3 |
| 20260831094544 | 71 | 146 | 2.0 | 6.0 | 0.00 | 0.00 | 0.00 | 91 | 1007.3 |
| 20260831094029 | 71 | 213 | 1.0 | 6.0 | 0.00 | 0.00 | 0.00 | 91 | 1007.3 |
| 20260831093526 | 71 | 147 | 1.0 | 6.0 | 0.00 | 0.00 | 0.00 | 91 | 1007.5 |
| 20260831093048 | 71 | 192 | 1.0 | 6.0 | 0.00 | 0.00 | 0.00 | 91 | 1007.5 |
| 20260831092529 | 71 | 228 | 3.0 | 6.0 | 0.00 | 0.00 | 0.00 | 91 | 1007.4 |
| 20260831092029 | 71 | 193 | 2.0 | 7.0 | 0.00 | 0.00 | 0.00 | 91 | 1007.4 |
| 20260831091556 | 71 | 165 | 2.0 | 7.0 | 0.00 | 0.00 | 0.00 | 91 | 1007.3 |
| 20260831091026 | 71 | 160 | 3.0 | 7.0 | 0.00 | 0.00 | 0.00 | 91 | 1007.4 |
| 20260831090530 | 71 | 168 | 2.0 | 7.0 | 0.00 | 0.00 | 0.00 | 91 | 1007.4 |
| 20260831090057 | 70 | 211 | 2.0 | 7.0 | 0.00 | 0.00 | 0.00 | 91 | 1007.3 |
| 20260831085528 | 70 | 206 | 1.0 | 3.0 | 0.00 | 0.00 | 0.00 | 91 | 1007.3 |
| 20260831085028 | 70 | 165 | 0.0 | 4.0 | 0.00 | 0.00 | 0.00 | 90 | 1007.2 |
| 20260831084546 | 70 | 213 | 1.0 | 8.0 | 0.00 | 0.00 | 0.00 | 90 | 1007.2 |
| 20260831084029 | 71 | 198 | 1.0 | 9.0 | 0.00 | 0.00 | 0.00 | 90 | 1007.1 |
| 20260831083528 | 71 | 189 | 3.0 | 9.0 | 0.00 | 0.00 | 0.00 | 90 | 1007.2 |
| 20260831083043 | 71 | 158 | 2.0 | 8.0 | 0.00 | 0.00 | 0.00 | 90 | 1007.0 |
| 20260831082528 | 71 | 188 | 1.0 | 5.0 | 0.00 | 0.00 | 0.00 | 90 | 1007.0 |
| 20260831082029 | 71 | 228 | 2.0 | 7.0 | 0.00 | 0.00 | 0.00 | 90 | 1007.0 |
| 20260831081553 | 71 | 0 | 1.0 | 7.0 | 0.00 | 0.00 | 0.00 | 90 | 1006.9 |
| 20260831081031 | 71 | 113 | 2.0 | 7.0 | 0.00 | 0.00 | 0.00 | 90 | 1006.8 |
| 20260831080530 | 71 | 0 | 0.0 | 5.0 | 0.00 | 0.00 | 0.00 | 90 | 1006.8 |
| 20260831075526 | 71 | 205 | 1.0 | 4.0 | 0.00 | 0.00 | 0.00 | 90 | 1006.6 |
| 20260831075030 | 71 | 0 | 0.0 | 4.0 | 0.00 | 0.00 | 0.00 | 90 | 1006.7 |
| 20260831074545 | 71 | 215 | 1.0 | 4.0 | 0.00 | 0.00 | 0.00 | 90 | 1006.8 |
| 20260831074029 | 71 | 180 | 1.0 | 5.0 | 0.00 | 0.00 | 0.00 | 89 | 1006.7 |
| 20260831073529 | 71 | 192 | 0.0 | 6.0 | 0.00 | 0.00 | 0.00 | 89 | 1006.7 |
| 20260831073044 | 71 | 123 | 0.0 | 6.0 | 0.00 | 0.00 | 0.00 | 89 | 1006.9 |
| 20260831072531 | 71 | 150 | 2.0 | 6.0 | 0.00 | 0.00 | 0.00 | 89 | 1006.9 |
| 20260831072032 | 71 | 92 | 1.0 | 5.0 | 0.00 | 0.00 | 0.00 | 89 | 1006.9 |
| 20260831071552 | 71 | 155 | 1.0 | 6.0 | 0.00 | 0.00 | 0.00 | 88 | 1007.0 |
| 20260831071028 | 71 | 197 | 1.0 | 6.0 | 0.00 | 0.00 | 0.00 | 88 | 1006.8 |
| 20260831070529 | 71 | 157 | 1.0 | 6.0 | 0.00 | 0.00 | 0.00 | 88 | 1006.9 |
| 20260831070049 | 71 | 153 | 0.0 | 6.0 | 0.00 | 0.00 | 0.00 | 88 | 1007.0 |
| 20260831065529 | 71 | 0 | 1.0 | 6.0 | 0.00 | 0.00 | 0.00 | 88 | 1007.0 |
| 20260831065029 | 72 | 138 | 1.0 | 6.0 | 0.00 | 0.00 | 0.00 | 88 | 1006.9 |
| 20260831064545 | 72 | 155 | 2.0 | 8.0 | 0.00 | 0.00 | 0.00 | 88 | 1007.0 |
| 20260831064028 | 72 | 212 | 2.0 | 8.0 | 0.00 | 0.00 | 0.00 | 88 | 1006.9 |
| 20260831063528 | 72 | 140 | 3.0 | 7.0 | 0.00 | 0.00 | 0.00 | 87 | 1006.9 |
| 20260831063045 | 72 | 140 | 2.0 | 8.0 | 0.00 | 0.00 | 0.00 | 87 | 1006.7 |
| 20260831062528 | 72 | 243 | 3.0 | 8.0 | 0.00 | 0.00 | 0.00 | 87 | 1006.9 |
| 20260831062029 | 72 | 202 | 3.0 | 11.0 | 0.00 | 0.00 | 0.00 | 87 | 1006.9 |
| 20260831061552 | 72 | 93 | 3.0 | 11.0 | 0.00 | 0.00 | 0.00 | 87 | 1006.9 |
| 20260831061031 | 72 | 178 | 3.0 | 7.0 | 0.00 | 0.00 | 0.00 | 87 | 1007.0 |
| 20260831060529 | 72 | 136 | 2.0 | 7.0 | 0.00 | 0.00 | 0.00 | 87 | 1007.1 |
| 20260831060049 | 72 | 219 | 2.0 | 7.0 | 0.00 | 0.00 | 0.00 | 87 | 1007.1 |
| 20260831055528 | 72 | 121 | 3.0 | 9.0 | 0.00 | 0.00 | 0.00 | 86 | 1007.0 |
| 20260831055028 | 73 | 199 | 3.0 | 9.0 | 0.00 | 0.00 | 0.00 | 86 | 1007.0 |
| 20260831054545 | 73 | 178 | 2.0 | 9.0 | 0.00 | 0.00 | 0.00 | 86 | 1007.0 |
| 20260831054030 | 73 | 145 | 4.0 | 8.0 | 0.00 | 0.00 | 0.00 | 86 | 1006.9 |
| 20260831053530 | 73 | 197 | 1.0 | 6.0 | 0.00 | 0.00 | 0.00 | 86 | 1006.9 |
| 20260831053044 | 73 | 80 | 2.0 | 8.0 | 0.00 | 0.00 | 0.00 | 87 | 1007.0 |
| 20260831052529 | 73 | 107 | 2.0 | 9.0 | 0.00 | 0.00 | 0.00 | 87 | 1007.0 |
| 20260831052028 | 73 | 161 | 2.0 | 9.0 | 0.00 | 0.00 | 0.00 | 87 | 1006.9 |
| 20260831051550 | 73 | 229 | 1.0 | 7.0 | 0.00 | 0.00 | 0.00 | 87 | 1007.0 |
| 20260831051026 | 73 | 176 | 2.0 | 8.0 | 0.00 | 0.00 | 0.00 | 87 | 1007.0 |
| 20260831050530 | 73 | 119 | 4.0 | 8.0 | 0.00 | 0.00 | 0.00 | 87 | 1007.1 |
| 20260831050049 | 73 | 207 | 2.0 | 5.0 | 0.00 | 0.00 | 0.00 | 87 | 1007.2 |
| 20260831045528 | 73 | 67 | 2.0 | 8.0 | 0.00 | 0.00 | 0.00 | 87 | 1007.4 |
| 20260831045029 | 73 | 159 | 3.0 | 8.0 | 0.00 | 0.00 | 0.00 | 87 | 1007.5 |
| 20260831044544 | 73 | 181 | 2.0 | 6.0 | 0.00 | 0.00 | 0.00 | 87 | 1007.7 |
| 20260831044028 | 73 | 185 | 1.0 | 6.0 | 0.00 | 0.00 | 0.00 | 87 | 1007.7 |
| 20260831043528 | 73 | 0 | 2.0 | 6.0 | 0.00 | 0.00 | 0.00 | 87 | 1007.7 |
| 20260831043044 | 73 | 189 | 0.0 | 6.0 | 0.00 | 0.00 | 0.00 | 87 | 1007.9 |
| 20260831042531 | 73 | 53 | 1.0 | 5.0 | 0.00 | 0.00 | 0.00 | 87 | 1008.0 |
| 20260831042028 | 73 | 0 | 0.0 | 3.0 | 0.00 | 0.00 | 0.00 | 86 | 1008.0 |
| 20260831041600 | 73 | 0 | 0.0 | 3.0 | 0.00 | 0.00 | 0.00 | 86 | 1008.2 |
| 20260831041029 | 73 | 0 | 0.0 | 4.0 | 0.00 | 0.00 | 0.00 | 86 | 1008.2 |
| 20260831040529 | 73 | 167 | 1.0 | 4.0 | 0.00 | 0.00 | 0.00 | 86 | 1008.2 |
| 20260831040046 | 73 | 152 | 1.0 | 4.0 | 0.00 | 0.00 | 0.00 | 86 | 1008.3 |
| 20260831035529 | 73 | 0 | 0.0 | 3.0 | 0.00 | 0.00 | 0.00 | 85 | 1008.4 |
| 20260831035028 | 73 | 227 | 0.0 | 4.0 | 0.00 | 0.00 | 0.00 | 85 | 1008.5 |
| 20260831034544 | 73 | 0 | 0.0 | 4.0 | 0.00 | 0.00 | 0.00 | 85 | 1008.4 |
| 20260831034028 | 73 | 123 | 0.0 | 4.0 | 0.00 | 0.00 | 0.00 | 85 | 1008.5 |
| 20260831033530 | 73 | 61 | 1.0 | 5.0 | 0.00 | 0.00 | 0.00 | 85 | 1008.3 |
| 20260831033046 | 74 | 185 | 1.0 | 5.0 | 0.00 | 0.00 | 0.00 | 85 | 1008.3 |
| 20260831032529 | 74 | 181 | 1.0 | 5.0 | 0.00 | 0.00 | 0.00 | 85 | 1008.3 |
| 20260831032028 | 74 | 177 | 1.0 | 4.0 | 0.00 | 0.00 | 0.00 | 85 | 1008.3 |
| 20260831031601 | 74 | 201 | 1.0 | 4.0 | 0.00 | 0.00 | 0.00 | 84 | 1008.2 |
| 20260831031028 | 74 | 140 | 1.0 | 6.0 | 0.00 | 0.00 | 0.00 | 84 | 1008.2 |
| 20260831030530 | 74 | 136 | 1.0 | 6.0 | 0.00 | 0.00 | 0.00 | 84 | 1008.2 |
| 20260831030048 | 74 | 107 | 1.0 | 6.0 | 0.00 | 0.00 | 0.00 | 84 | 1008.1 |
| 20260831025525 | 74 | 223 | 1.0 | 5.0 | 0.00 | 0.00 | 0.00 | 83 | 1008.3 |
| 20260831025024 | 74 | 146 | 1.0 | 6.0 | 0.00 | 0.00 | 0.00 | 83 | 1008.1 |
| 20260831024551 | 74 | 144 | 0.0 | 6.0 | 0.00 | 0.00 | 0.00 | 83 | 1008.1 |
| 20260831024025 | 74 | 75 | 0.0 | 10.0 | 0.00 | 0.00 | 0.00 | 83 | 1008.0 |
| 20260831023529 | 75 | 268 | 2.0 | 10.0 | 0.00 | 0.00 | 0.00 | 83 | 1008.1 |
| 20260831023044 | 75 | 38 | 2.0 | 10.0 | 0.00 | 0.00 | 0.00 | 83 | 1007.9 |
| 20260831022529 | 75 | 203 | 1.0 | 6.0 | 0.00 | 0.00 | 0.00 | 82 | 1007.7 |
| 20260831022027 | 75 | 89 | 1.0 | 6.0 | 0.00 | 0.00 | 0.00 | 82 | 1007.8 |
| 20260831021554 | 75 | 148 | 1.0 | 4.0 | 0.00 | 0.00 | 0.00 | 82 | 1007.8 |
| 20260831021031 | 75 | 28 | 1.0 | 7.0 | 0.00 | 0.00 | 0.00 | 82 | 1007.8 |
| 20260831020525 | 75 | 0 | 2.0 | 7.0 | 0.00 | 0.00 | 0.00 | 82 | 1007.8 |
| 20260831020047 | 75 | 50 | 1.0 | 6.0 | 0.00 | 0.00 | 0.00 | 82 | 1007.9 |
| 20260831015526 | 75 | 222 | 1.0 | 5.0 | 0.00 | 0.00 | 0.00 | 82 | 1008.0 |
| 20260831015026 | 75 | 0 | 0.0 | 5.0 | 0.00 | 0.00 | 0.00 | 82 | 1008.0 |
| 20260831014544 | 75 | 0 | 2.0 | 5.0 | 0.00 | 0.00 | 0.00 | 81 | 1008.0 |
| 20260831014025 | 75 | 62 | 0.0 | 5.0 | 0.00 | 0.00 | 0.00 | 81 | 1008.1 |
| 20260831013527 | 75 | 0 | 2.0 | 5.0 | 0.00 | 0.00 | 0.00 | 81 | 1008.1 |
| 20260831013044 | 76 | 55 | 1.0 | 7.0 | 0.00 | 0.00 | 0.00 | 81 | 1007.9 |
| 20260831012527 | 76 | 0 | 1.0 | 9.0 | 0.00 | 0.00 | 0.00 | 81 | 1008.1 |
| 20260831012029 | 76 | 86 | 2.0 | 9.0 | 0.00 | 0.00 | 0.00 | 81 | 1008.1 |
| 20260831011554 | 76 | 20 | 1.0 | 6.0 | 0.00 | 0.00 | 0.00 | 80 | 1008.0 |
| 20260831011024 | 76 | 0 | 1.0 | 6.0 | 0.00 | 0.00 | 0.00 | 80 | 1008.1 |
| 20260831010526 | 76 | 44 | 2.0 | 6.0 | 0.00 | 0.00 | 0.00 | 80 | 1008.2 |
| 20260831010046 | 77 | 352 | 0.0 | 5.0 | 0.00 | 0.00 | 0.00 | 79 | 1008.2 |
| 20260831005528 | 77 | 0 | 2.0 | 5.0 | 0.00 | 0.00 | 0.00 | 79 | 1008.1 |
| 20260831005028 | 77 | 17 | 2.0 | 5.0 | 0.00 | 0.00 | 0.00 | 79 | 1008.1 |
| 20260831004545 | 77 | 52 | 2.0 | 5.0 | 0.00 | 0.00 | 0.00 | 79 | 1008.1 |
| 20260831004029 | 77 | 11 | 0.0 | 5.0 | 0.00 | 0.00 | 0.00 | 79 | 1008.2 |
| 20260831003525 | 78 | 37 | 1.0 | 4.0 | 0.00 | 0.00 | 0.00 | 78 | 1008.2 |
| 20260831003048 | 78 | 50 | 1.0 | 6.0 | 0.00 | 0.00 | 0.00 | 78 | 1008.3 |
| 20260831002527 | 78 | 49 | 2.0 | 6.0 | 0.00 | 0.00 | 0.00 | 78 | 1008.3 |
| 20260831002029 | 78 | 344 | 1.0 | 4.0 | 0.00 | 0.00 | 0.00 | 77 | 1008.3 |
| 20260831001542 | 78 | 42 | 1.0 | 4.0 | 0.00 | 0.00 | 0.00 | 77 | 1008.3 |
| 20260831001027 | 78 | 77 | 1.0 | 4.0 | 0.00 | 0.00 | 0.00 | 77 | 1008.2 |
| 20260831000525 | 78 | 5 | 0.0 | 3.0 | 0.00 | 0.00 | 0.00 | 77 | 1008.2 |
| 20260831000057 | 78 | 109 | 2.0 | 4.0 | 0.00 | 0.00 | 0.00 | 77 | 1008.2 |
| 20260830235524 | 79 | 0 | 1.0 | 4.0 | 0.00 | 0.00 | 0.00 | 77 | 1008.1 |
| 20260830235028 | 79 | 38 | 0.0 | 7.0 | 0.00 | 0.00 | 0.00 | 76 | 1008.0 |
| 20260830234548 | 79 | 29 | 1.0 | 7.0 | 0.00 | 0.00 | 0.00 | 76 | 1008.1 |
| 20260830234038 | 79 | 61 | 1.0 | 7.0 | 0.00 | 0.00 | 0.00 | 76 | 1008.1 |
| 20260830233527 | 79 | 94 | 2.0 | 7.0 | 0.00 | 0.00 | 0.00 | 76 | 1008.1 |
| 20260830233043 | 79 | 352 | 1.0 | 6.0 | 0.00 | 0.00 | 0.00 | 75 | 1008.2 |
| 20260830232528 | 79 | 360 | 1.0 | 7.0 | 0.00 | 0.00 | 0.00 | 75 | 1008.2 |
| 20260830232028 | 79 | 55 | 2.0 | 7.0 | 0.00 | 0.00 | 0.00 | 75 | 1008.2 |
| 20260830231545 | 79 | 80 | 1.0 | 7.0 | 0.00 | 0.00 | 0.00 | 75 | 1008.0 |
| 20260830231028 | 79 | 209 | 2.0 | 7.0 | 0.00 | 0.00 | 0.00 | 75 | 1008.0 |
| 20260830230528 | 79 | 186 | 1.0 | 4.0 | 0.00 | 0.00 | 0.00 | 75 | 1008.1 |
| 20260830230043 | 79 | 0 | 1.0 | 7.0 | 0.00 | 0.00 | 0.00 | 75 | 1008.1 |
| 20260830225527 | 79 | 325 | 0.0 | 7.0 | 0.00 | 0.00 | 0.00 | 75 | 1008.0 |
| 20260830225028 | 79 | 183 | 0.0 | 8.0 | 0.00 | 0.00 | 0.00 | 75 | 1008.1 |
| 20260830224552 | 79 | 252 | 1.0 | 8.0 | 0.00 | 0.00 | 0.00 | 75 | 1008.1 |
| 20260830224031 | 79 | 265 | 1.0 | 8.0 | 0.00 | 0.00 | 0.00 | 74 | 1008.1 |
| 20260830223526 | 80 | 5 | 2.0 | 8.0 | 0.00 | 0.00 | 0.00 | 74 | 1007.9 |
| 20260830223059 | 79 | 44 | 2.0 | 9.0 | 0.00 | 0.00 | 0.00 | 74 | 1008.0 |
| 20260830222527 | 79 | 14 | 0.0 | 9.0 | 0.00 | 0.00 | 0.00 | 74 | 1008.1 |
| 20260830222027 | 79 | 46 | 3.0 | 9.0 | 0.00 | 0.00 | 0.00 | 74 | 1008.0 |
| 20260830221600 | 80 | 96 | 2.0 | 8.0 | 0.00 | 0.00 | 0.00 | 74 | 1008.1 |
| 20260830221030 | 79 | 265 | 1.0 | 9.0 | 0.00 | 0.00 | 0.00 | 75 | 1008.1 |
| 20260830220529 | 79 | 51 | 3.0 | 9.0 | 0.00 | 0.00 | 0.00 | 74 | 1008.1 |
| 20260830220044 | 79 | 157 | 1.0 | 9.0 | 0.00 | 0.00 | 0.00 | 74 | 1008.1 |
| 20260830215528 | 79 | 219 | 2.0 | 9.0 | 0.00 | 0.00 | 0.00 | 74 | 1008.1 |
| 20260830215031 | 79 | 321 | 3.0 | 9.0 | 0.00 | 0.00 | 0.00 | 74 | 1008.1 |
| 20260830214551 | 79 | 80 | 2.0 | 9.0 | 0.00 | 0.00 | 0.00 | 74 | 1008.2 |
| 20260830214028 | 79 | 199 | 3.0 | 9.0 | 0.00 | 0.00 | 0.00 | 74 | 1008.3 |
| 20260830213531 | 79 | 136 | 1.0 | 8.0 | 0.00 | 0.00 | 0.00 | 73 | 1008.3 |
| 20260830213046 | 80 | 5 | 2.0 | 8.0 | 0.00 | 0.00 | 0.00 | 73 | 1008.3 |
| 20260830212528 | 79 | 41 | 3.0 | 8.0 | 0.00 | 0.00 | 0.00 | 73 | 1008.5 |
| 20260830212028 | 80 | 88 | 2.0 | 9.0 | 0.00 | 0.00 | 0.00 | 73 | 1008.3 |
| 20260830211543 | 80 | 238 | 3.0 | 11.0 | 0.00 | 0.00 | 0.00 | 73 | 1008.4 |
| 20260830211028 | 80 | 116 | 2.0 | 11.0 | 0.00 | 0.00 | 0.00 | 72 | 1008.3 |
| 20260830210529 | 80 | 24 | 1.0 | 6.0 | 0.00 | 0.00 | 0.00 | 72 | 1008.4 |
| 20260830210051 | 79 | 328 | 2.0 | 6.0 | 0.00 | 0.00 | 0.00 | 74 | 1008.4 |
| 20260830205528 | 78 | 352 | 1.0 | 8.0 | 0.00 | 0.00 | 0.00 | 75 | 1008.5 |
| 20260830205026 | 77 | 10 | 2.0 | 8.0 | 0.00 | 0.00 | 0.00 | 75 | 1008.5 |
| 20260830204548 | 78 | 342 | 4.0 | 8.0 | 0.00 | 0.00 | 0.00 | 75 | 1008.6 |
| 20260830204028 | 78 | 0 | 3.0 | 7.0 | 0.00 | 0.00 | 0.00 | 75 | 1008.9 |
| 20260830203528 | 78 | 140 | 2.0 | 6.0 | 0.00 | 0.00 | 0.00 | 74 | 1008.8 |
| 20260830203051 | 78 | 220 | 1.0 | 7.0 | 0.00 | 0.00 | 0.00 | 75 | 1008.8 |
| 20260830202529 | 78 | 37 | 2.0 | 9.0 | 0.00 | 0.00 | 0.00 | 75 | 1008.8 |
| 20260830202029 | 77 | 5 | 2.0 | 9.0 | 0.00 | 0.00 | 0.00 | 76 | 1008.7 |
| 20260830201558 | 77 | 62 | 3.0 | 9.0 | 0.00 | 0.00 | 0.00 | 75 | 1008.9 |
| 20260830201032 | 77 | 5 | 2.0 | 7.0 | 0.00 | 0.00 | 0.00 | 76 | 1009.0 |
| 20260830200527 | 77 | 225 | 2.0 | 7.0 | 0.00 | 0.00 | 0.00 | 76 | 1008.9 |
| 20260830200100 | 77 | 310 | 1.0 | 13.0 | 0.00 | 0.00 | 0.00 | 76 | 1009.0 |
| 20260830195529 | 76 | 46 | 1.0 | 13.0 | 0.00 | 0.00 | 0.00 | 76 | 1009.0 |
| 20260830195027 | 76 | 281 | 2.0 | 11.0 | 0.00 | 0.00 | 0.00 | 76 | 1009.0 |
| 20260830194605 | 77 | 141 | 2.0 | 11.0 | 0.00 | 0.00 | 0.00 | 75 | 1009.0 |
| 20260830194026 | 77 | 269 | 3.0 | 10.0 | 0.00 | 0.00 | 0.00 | 74 | 1009.0 |
| 20260830193526 | 77 | 227 | 4.0 | 10.0 | 0.00 | 0.00 | 0.00 | 76 | 1009.0 |
| 20260830193054 | 76 | 9 | 2.0 | 12.0 | 0.00 | 0.00 | 0.00 | 77 | 1009.1 |
| 20260830192529 | 75 | 155 | 2.0 | 12.0 | 0.00 | 0.00 | 0.00 | 78 | 1009.2 |
| 20260830192028 | 75 | 105 | 3.0 | 12.0 | 0.00 | 0.00 | 0.00 | 78 | 1009.4 |
| 20260830191546 | 75 | 26 | 3.0 | 10.0 | 0.00 | 0.00 | 0.00 | 78 | 1009.4 |
| 20260830191029 | 75 | 169 | 2.0 | 10.0 | 0.00 | 0.00 | 0.00 | 78 | 1009.5 |
| 20260830190527 | 75 | 86 | 2.0 | 10.0 | 0.00 | 0.00 | 0.00 | 78 | 1009.7 |
| 20260830190047 | 75 | 214 | 3.0 | 10.0 | 0.00 | 0.00 | 0.00 | 78 | 1009.7 |
| 20260830185528 | 75 | 91 | 3.0 | 10.0 | 0.00 | 0.00 | 0.00 | 77 | 1009.7 |
| 20260830185026 | 75 | 57 | 2.0 | 8.0 | 0.00 | 0.00 | 0.00 | 77 | 1009.7 |
| 20260830184552 | 75 | 0 | 2.0 | 8.0 | 0.00 | 0.00 | 0.00 | 79 | 1009.7 |
| 20260830184028 | 74 | 67 | 3.0 | 8.0 | 0.00 | 0.00 | 0.00 | 79 | 1009.9 |
| 20260830183528 | 74 | 241 | 1.0 | 9.0 | 0.00 | 0.00 | 0.00 | 80 | 1010.0 |
| 20260830183044 | 73 | 22 | 2.0 | 9.0 | 0.00 | 0.00 | 0.00 | 80 | 1010.1 |
| 20260830182529 | 73 | 186 | 3.0 | 9.0 | 0.00 | 0.00 | 0.00 | 80 | 1010.1 |
| 20260830182031 | 73 | 150 | 2.0 | 8.0 | 0.00 | 0.00 | 0.00 | 80 | 1010.2 |
| 20260830181545 | 74 | 168 | 2.0 | 6.0 | 0.00 | 0.00 | 0.00 | 79 | 1010.2 |
| 20260830181028 | 74 | 206 | 2.0 | 6.0 | 0.00 | 0.00 | 0.00 | 80 | 1010.3 |
| 20260830180529 | 73 | 323 | 2.0 | 6.0 | 0.00 | 0.00 | 0.00 | 80 | 1010.2 |
| 20260830180100 | 73 | 215 | 2.0 | 9.0 | 0.00 | 0.00 | 0.00 | 80 | 1010.2 |
| 20260830175529 | 73 | 190 | 3.0 | 9.0 | 0.00 | 0.00 | 0.00 | 80 | 1010.3 |
| 20260830175029 | 73 | 270 | 2.0 | 9.0 | 0.00 | 0.00 | 0.00 | 79 | 1010.3 |
| 20260830174559 | 74 | 319 | 1.0 | 8.0 | 0.00 | 0.00 | 0.00 | 79 | 1010.1 |
| 20260830174027 | 74 | 250 | 2.0 | 13.0 | 0.00 | 0.00 | 0.00 | 79 | 1010.0 |
| 20260830173530 | 73 | 147 | 1.0 | 13.0 | 0.00 | 0.00 | 0.00 | 79 | 1010.2 |
| 20260830173102 | 73 | 90 | 2.0 | 9.0 | 0.00 | 0.00 | 0.00 | 79 | 1010.3 |
| 20260830172528 | 74 | 232 | 2.0 | 6.0 | 0.00 | 0.00 | 0.00 | 78 | 1010.2 |
| 20260830172030 | 74 | 254 | 1.0 | 7.0 | 0.00 | 0.00 | 0.00 | 79 | 1010.1 |
| 20260830171558 | 73 | 211 | 2.0 | 7.0 | 0.00 | 0.00 | 0.00 | 80 | 1010.2 |
| 20260830171025 | 73 | 107 | 1.0 | 9.0 | 0.00 | 0.00 | 0.00 | 79 | 1010.1 |
| 20260830170525 | 73 | 222 | 3.0 | 9.0 | 0.00 | 0.00 | 0.00 | 79 | 1010.2 |
| 20260830170045 | 73 | 94 | 3.0 | 9.0 | 0.00 | 0.00 | 0.00 | 79 | 1010.3 |
| 20260830165527 | 73 | 284 | 1.0 | 9.0 | 0.00 | 0.00 | 0.00 | 80 | 1010.1 |
| 20260830165026 | 72 | 96 | 3.0 | 8.0 | 0.00 | 0.00 | 0.00 | 80 | 1010.1 |
| 20260830164558 | 73 | 258 | 2.0 | 11.0 | 0.00 | 0.00 | 0.00 | 79 | 1010.0 |
| 20260830164028 | 73 | 27 | 3.0 | 11.0 | 0.00 | 0.00 | 0.00 | 79 | 1010.0 |
| 20260830163526 | 73 | 101 | 2.0 | 10.0 | 0.00 | 0.00 | 0.00 | 79 | 1009.9 |
| 20260830163059 | 73 | 258 | 2.0 | 10.0 | 0.00 | 0.00 | 0.00 | 81 | 1010.0 |
| 20260830162528 | 71 | 12 | 4.0 | 10.0 | 0.00 | 0.00 | 0.00 | 81 | 1009.7 |
| 20260830162027 | 71 | 360 | 1.0 | 9.0 | 0.00 | 0.00 | 0.00 | 83 | 1009.8 |
| 20260830161545 | 70 | 309 | 1.0 | 12.0 | 0.00 | 0.00 | 0.00 | 84 | 1009.9 |
| 20260830161025 | 70 | 5 | 4.0 | 12.0 | 0.00 | 0.00 | 0.00 | 84 | 1009.9 |
| 20260830160528 | 70 | 258 | 3.0 | 9.0 | 0.00 | 0.00 | 0.00 | 84 | 1009.8 |
| 20260830160054 | 69 | 0 | 2.0 | 11.0 | 0.00 | 0.00 | 0.00 | 85 | 1009.7 |
| 20260830155524 | 69 | 57 | 3.0 | 11.0 | 0.00 | 0.00 | 0.00 | 85 | 1009.6 |
| 20260830155032 | 69 | 88 | 3.0 | 12.0 | 0.00 | 0.00 | 0.00 | 86 | 1009.5 |
| 20260830154551 | 69 | 136 | 4.0 | 12.0 | 0.00 | 0.00 | 0.00 | 86 | 1009.9 |
| 20260830154028 | 68 | 30 | 4.0 | 12.0 | 0.00 | 0.00 | 0.00 | 86 | 1010.1 |
| 20260830153524 | 68 | 43 | 2.0 | 9.0 | 0.00 | 0.00 | 0.00 | 86 | 1010.0 |
| 20260830153047 | 68 | 92 | 2.0 | 9.0 | 0.00 | 0.00 | 0.00 | 86 | 1010.1 |
| 20260830152525 | 68 | 39 | 2.0 | 9.0 | 0.00 | 0.00 | 0.00 | 87 | 1010.0 |
| 20260830152027 | 68 | 23 | 2.0 | 9.0 | 0.00 | 0.00 | 0.00 | 87 | 1010.0 |
| 20260830151553 | 68 | 109 | 4.0 | 10.0 | 0.00 | 0.00 | 0.00 | 87 | 1010.1 |
| 20260830151027 | 68 | 219 | 2.0 | 10.0 | 0.00 | 0.00 | 0.00 | 87 | 1010.3 |
| 20260830150527 | 67 | 44 | 4.0 | 10.0 | 0.00 | 0.00 | 0.00 | 87 | 1010.3 |
| 20260830150049 | 67 | 75 | 3.0 | 7.0 | 0.00 | 0.00 | 0.00 | 88 | 1010.4 |
| 20260830145527 | 67 | 0 | 1.0 | 9.0 | 0.00 | 0.00 | 0.00 | 88 | 1010.5 |
| 20260830145026 | 67 | 360 | 2.0 | 9.0 | 0.00 | 0.00 | 0.00 | 88 | 1010.4 |
| 20260830144546 | 67 | 5 | 4.0 | 11.0 | 0.00 | 0.00 | 0.00 | 89 | 1010.3 |
| 20260830144030 | 67 | 45 | 2.0 | 11.0 | 0.00 | 0.00 | 0.00 | 89 | 1010.3 |
| 20260830143528 | 67 | 58 | 3.0 | 10.0 | 0.00 | 0.00 | 0.00 | 89 | 1010.3 |
| 20260830143046 | 67 | 146 | 5.0 | 10.0 | 0.00 | 0.00 | 0.00 | 89 | 1010.3 |
| 20260830142529 | 67 | 32 | 3.0 | 7.0 | 0.00 | 0.00 | 0.00 | 90 | 1010.4 |
| 20260830142025 | 66 | 22 | 2.0 | 5.0 | 0.00 | 0.00 | 0.00 | 90 | 1010.3 |
| 20260830141551 | 66 | 62 | 2.0 | 10.0 | 0.00 | 0.00 | 0.00 | 90 | 1010.3 |
| 20260830141029 | 66 | 0 | 4.0 | 10.0 | 0.00 | 0.00 | 0.00 | 90 | 1010.3 |
| 20260830140527 | 66 | 39 | 2.0 | 7.0 | 0.00 | 0.00 | 0.00 | 91 | 1010.2 |
| 20260830140048 | 66 | 96 | 1.0 | 7.0 | 0.00 | 0.00 | 0.00 | 91 | 1010.2 |
| 20260830135524 | 66 | 25 | 3.0 | 7.0 | 0.00 | 0.01 | 0.00 | 91 | 1010.2 |
| 20260830135031 | 66 | 0 | 2.0 | 7.0 | 0.00 | 0.01 | 0.00 | 91 | 1010.2 |